Regional Weather Roundup
Issued by NWS Charleston, SC

Current Version | Previous Version | Text Only | Print | Product List | Glossary On
Versions: 1 2 3 4 5 6 7 8 9 10 11 12 13 14 15 16 17 18 19 20 21 22 23 24 25 26 27 28 29 30 31 32 33 34 35 36 37 38 39 40 41 42 43 44 45 46 47 48 49 50
000 ASUS42 KCHS 311926 RWRCHS REGIONAL WEATHER ROUNDUP NATIONAL WEATHER SERVICE CHARLESTON SC 200 PM EST SAT JAN 31 2015 NOTE: "FAIR" INDICATES FEW OR NO CLOUDS BELOW 12,000 FEET WITH NO SIGNIFICANT WEATHER AND/OR OBSTRUCTIONS TO VISIBILITY. NOT ALL STATIONS ARE QUALITY CONTROLLED BY THE NATIONAL WEATHER SERVICE. USE DATA WITH CAUTION...ESPECIALLY DEWPOINT OBSERVATIONS. SCZ027-030-031-034>040-042>050-312000- ...SOUTHEAST SOUTH CAROLINA... CITY SKY/WX TMP DP RH WIND PRES REMARKS N CHARLESTON MOSUNNY 54 7 15 NW8 30.36F WATERFRONT PRK N/A 46 N/A N/A SE9 N/A MOUNT PLEASANT FAIR 50 23 34 S7 30.36S PINOPOLIS N/A 48 16 27 VRB2 30.28F MONCKS CORNER FAIR 50 9 18 N5 30.36F SUMMERVILLE FAIR 54 18 24 SW3 30.36F BEAUFORT MCAS SUNNY 53 17 24 VRB3 30.37F BEAUFORT ARPT FAIR 50 21 32 CALM 30.36F HILTON HEAD IS MOSUNNY 48 21 34 NE7 30.39F WALTERBORO CLEAR 54 -4 9 S5 30.36F ALLENDALE FAIR 54 12 19 CALM 30.34F ...SOUTHERN MIDLANDS AND PEE DEE... CITY SKY/WX TMP DP RH WIND PRES REMARKS GEORGETOWN NOT AVBL KINGSTREE NOT AVBL ORANGEBURG SUNNY 51 10 19 CALM 30.35F BARNWELL FAIR 54 14 20 CALM 30.35F AIKEN FAIR 52 14 22 CALM 30.36F MANNING FAIR 52 9 17 NW5 30.35F COLUMBIA MOSUNNY 51 14 22 VRB5 30.35F SUMTER MOSUNNY 51 11 19 VRB2 30.34F FLORENCE SUNNY 49 9 19 W6 30.35F MYRTLE BEACH SUNNY 48 7 18 NW6 30.36F N MYRTLE BEACH SUNNY 50 10 20 NE8 30.34F $$ GAZ063-065-086>088-099>101-113>116-118-119-134>141-150-312000- ...SOUTHEAST GEORGIA... CITY SKY/WX TMP DP RH WIND PRES REMARKS SAVANNAH ARPT MOSUNNY 53 11 18 CALM 30.36F HUNTER AAF SUNNY 53 18 24 E10 30.34F FORT STEWART PTSUNNY 56 17 22 E6 30.34F STATESBORO SUNNY 55 20 25 S5 30.34F SYLVANIA CLEAR 54 19 25 S6 30.35F CLAXTON FAIR 55 21 26 CALM 30.34F ...CSRA...CENTRAL AND FAR SOUTHEAST GEORGIA... CITY SKY/WX TMP DP RH WIND PRES REMARKS THOMSON SUNNY 56 20 25 CALM 30.38F AUGUSTA-BUSH SUNNY 54 11 18 CALM 30.35F AUGUSTA-DANIEL SUNNY 54 13 19 E5 30.35F SWAINSBORO FAIR N/A N/A N/A E7 30.34F VIDALIA MOSUNNY 55 19 24 SE5 30.33F EASTMAN FAIR 57 21 25 CALM 30.35F HAZLEHURST FAIR 58 22 24 SE5 30.31F ALMA SUNNY 57 16 20 VRB3 30.33F WAYCROSS SUNNY 62 26 26 S5 30.33F JESUP FAIR 61 30 31 CALM 30.34S BAXLEY FAIR 59 18 20 CALM 30.32F BRUNSWICK SUNNY 54 28 37 E13G18 30.36F SAINT SIMONS SUNNY 53 32 44 E14 30.36F $$ SCZ027-028-034-036>038-045-046-048>050-GAZ119-141-312000- ...LAKE AND SUPPLEMENTAL COASTAL OBSERVATIONS... STATION/POSITION TIME TEMP WIND PRES WAVE SWELL AIR SEA DIR/SP/G HT/PER HT/PER/DIR (UTC) (F) (DEG/KT/KT) (MB) (FT/S) (FT/S/D) UPR LAKE MARION NOT AVBL WINYAH BAY 1845 44 110/ 6 1027.0F LAKE MURRAY 1800 45 190/ 4/ 5 1027.8F ACE BASIN NERRS NOT AVBL FORT PULASKI 1900 46 52 80/ 10/ 12 1028.9F SAPELO ISLAND 1900 53 60/ 9 1028.0S $$ ANZ835-935-AMZ111-154-330-350-352-354-370-450-454-472-312000- ...C-MAN AND BUOY OBSERVATIONS... STATION/POSITION TIME TEMP WIND PRES WAVE SWELL AIR SEA DIR/SP/G HT/PER HT/PER/DIR (UTC) (F) (DEG/KT/KT) (MB) (FT/S) (FT/S/D) BUOY 41004 1850 47 67 30/ 14/ 17 1027.6F 5/ 6 3/10 BUOY 41008 1850 49 54 50/ 14/ 16 1027.9F 4/ 6 FOLLY BEACH CMAN 1900 45 120/ 6/ 7 1029.0F CAPERS NEARSHORE 1800 45 90/ 8/ 12 N/A FRIPP NEARSHORE 1800 46 70/ 10/ 12 1028.3S STATION/POSITION TIME TEMP WIND PRES WAVE SWELL AIR SEA DIR/SP/G HT/PER HT/PER/DIR (UTC) (F) (DEG/KT/KT) (MB) (FT/S) (FT/S/D) 5E ST. MARYS GA 1821 56 N/A 4/ 7 FRYING PAN BUOY 1850 41 63 10/ 12/ 16 1028.4F 4/10 3/ 80/10 BUOY 41025 1850 35 62 340/ 16/ 19 1025.9S 6/ 6 3/ 30/ 9 CAPE LOOKOUT NC 1900 40 310/ 6/ 7 1026.8F BUOY 41002 1850 54 69 340/ 19/ 25 1024.6R 12/ 9 8/340/ 9 BUOY 41010 1820 62 73 30/ 12/ 16 1025.0F ST AUGUSTINE FL 1900 56 10/ 16/ 17 1027.2F $$

USA.gov is the U.S. government's official web portal to all federal, state and local government web resources and services.